Theta_e
313 313 313 312 312 312 312 312 312 312 312 312 312 310 309 308 306 305 305 304 303 303 302 302 301 301 301 300 300 299 299 298 298 297 297 296 296 296 296 296 296 296 295 295 295 295 295 295 295 295 295 295 294 294 294 293 293 293 292 292 292 291 290 290 290 291 293 294 294 294 294 293 293 293 292 291 292 291 291 291 290 290 290 290 290
312 312 312 312 312 312 312 312 312 312 312 311 310 308 307 306 305 304 304 303 302 302 302 301 301 300 300 300 299 299 298 297 297 297 296 296 296 296 296 295 295 295 295 295 295 295 295 295 294 294 294 294 294 294 293 293 292 292 292 291 291 291 290 290 290 290 291 294 294 294 294 293 292 293 292 291 291 291 291 291 290 290 290 290 290
312 312 312 312 312 312 312 312 312 311 310 309 307 306 305 305 304 303 302 302 302 301 301 300 300 300 299 299 299 298 297 297 297 296 296 296 296 295 295 295 295 295 295 295 295 294 294 294 294 294 293 293 293 293 293 293 292 292 292 291 290 290 289 289 289 289 289 291 293 294 294 293 293 293 291 290 290 290 290 290 290 290 290 290 291
312 312 312 312 312 312 312 312 311 310 308 307 306 305 304 303 303 302 301 301 301 300 300 299 299 299 299 298 297 297 297 296 296 296 296 295 295 295 295 295 295 295 295 294 294 294 294 293 293 293 293 293 293 293 293 292 292 292 291 291 290 290 289 288 288 289 288 289 292 293 293 293 293 293 291 289 289 289 290 290 290 290 289 289 290
312 312 312 312 312 312 312 311 309 308 307 305 304 303 303 302 302 301 301 300 300 299 299 299 299 298 298 297 297 297 297 296 296 296 295 295 295 295 295 294 294 294 294 294 293 293 293 293 293 293 293 293 293 293 292 292 292 291 291 291 290 289 289 288 288 288 288 288 289 291 292 291 291 291 290 289 290 289 289 289 289 289 290 290 290
312 312 312 312 312 311 310 309 308 306 305 304 303 303 302 302 301 301 300 299 299 299 299 298 298 297 297 297 297 297 296 296 295 295 295 295 294 294 294 294 294 294 293 293 293 293 293 293 293 293 293 293 293 292 292 291 291 291 290 290 289 289 288 288 288 287 288 288 288 289 290 289 290 290 289 289 289 290 289 289 289 289 290 290 290
312 312 312 311 311 310 309 307 306 305 304 303 302 302 302 301 301 300 299 299 299 299 298 298 298 298 298 297 297 296 296 295 295 295 295 294 294 294 294 294 293 293 293 293 293 293 293 293 292 293 292 292 292 291 291 291 290 290 290 289 289 289 288 288 287 287 287 288 288 288 288 288 288 288 288 288 288 289 289 289 289 289 289 289 289
312 311 311 310 310 308 307 306 305 303 303 302 302 301 301 301 300 299 299 299 299 299 299 299 299 299 298 297 296 296 295 295 294 294 294 294 294 294 293 293 293 293 293 292 292 292 292 293 292 292 292 292 291 291 290 290 290 290 290 289 288 288 288 287 287 287 287 288 288 288 288 288 288 288 288 288 288 289 289 289 288 288 288 289 289
311 311 310 309 308 307 306 305 303 302 302 301 301 301 300 300 299 299 299 299 299 299 299 299 299 298 297 296 295 295 294 294 294 294 294 294 293 293 293 293 292 292 292 292 292 292 292 293 292 292 292 292 291 291 290 289 289 289 290 289 287 287 287 287 287 287 287 287 287 288 288 288 288 288 288 288 288 288 288 288 288 288 288 288 288
311 310 309 308 307 306 305 304 303 302 301 301 300 300 299 299 299 298 299 299 300 300 300 299 298 297 296 295 295 294 294 294 293 293 293 293 293 292 292 292 292 292 292 292 292 292 292 292 292 292 292 292 291 291 290 290 289 289 288 288 287 286 286 286 286 286 287 287 287 287 287 287 287 287 287 287 287 287 288 288 289 288 288 288 288
310 309 308 307 306 305 304 303 302 301 301 300 300 299 299 298 298 299 299 300 300 300 300 299 298 296 295 294 294 293 293 293 293 293 292 292 292 292 292 292 292 292 292 292 292 292 292 292 292 292 292 292 291 291 290 290 289 289 288 287 287 286 286 286 286 286 286 286 286 286 286 286 286 286 286 286 287 288 288 288 287 287 288 288 289
309 308 307 306 305 304 303 302 301 300 300 299 299 299 298 298 298 299 299 300 300 299 299 298 297 295 294 294 293 293 293 293 293 292 292 292 292 292 292 292 292 292 292 292 292 292 292 293 293 292 291 291 291 290 290 289 289 288 288 288 287 286 286 286 286 286 286 286 286 286 286 285 285 286 286 286 287 287 286 286 286 287 288 288 289
308 307 306 305 304 303 302 301 300 300 299 299 298 298 298 298 299 299 299 299 299 299 298 297 295 294 293 293 293 293 292 292 292 292 292 292 291 292 292 291 291 291 291 291 292 292 292 292 293 292 291 290 289 289 289 289 289 288 288 287 287 286 285 285 285 285 285 285 285 285 285 285 285 285 286 286 286 286 285 286 287 287 287 288 288
307 306 305 304 303 302 301 300 299 299 299 298 298 298 298 298 298 299 299 299 298 298 297 295 294 293 293 292 292 292 292 292 292 291 291 291 291 291 291 291 291 291 291 292 292 292 292 291 292 292 291 289 288 288 288 288 288 288 288 287 287 286 285 284 284 284 284 284 284 284 284 285 285 285 286 286 286 285 286 287 287 287 287 287 287
306 305 304 303 302 301 300 300 299 299 299 298 298 298 298 298 298 298 299 298 298 297 295 294 293 293 292 292 292 292 292 291 291 291 291 291 291 291 291 291 291 291 291 292 291 291 291 291 291 291 290 289 288 287 287 287 287 287 287 287 286 286 285 284 283 284 284 284 284 284 284 285 285 285 286 286 286 286 286 287 287 287 287 287 287
306 304 303 302 301 300 299 299 299 298 298 298 297 298 298 298 298 298 298 298 297 295 294 294 293 292 292 292 291 291 291 291 291 290 291 291 291 291 291 291 291 292 292 291 291 291 290 290 290 290 290 289 288 287 286 286 286 286 286 285 285 285 285 284 283 284 284 283 284 284 284 285 285 286 286 286 286 287 287 287 287 287 287 287 287
305 304 303 301 300 299 299 298 298 298 297 297 297 297 298 298 298 298 298 297 296 295 294 293 292 292 291 291 291 291 290 290 290 290 290 290 291 291 291 291 291 291 291 291 291 290 290 289 288 289 289 288 287 287 286 285 284 284 283 283 283 283 283 283 283 283 283 283 284 284 285 286 286 286 286 286 286 287 287 287 287 287 287 287 287
304 303 302 300 299 299 298 298 298 297 297 297 297 297 297 298 298 297 297 296 295 294 293 292 292 291 291 291 290 290 290 290 290 290 290 290 290 290 291 291 291 291 291 291 291 290 289 288 288 288 288 287 287 287 285 283 283 283 283 283 283 282 282 283 283 283 284 284 285 285 286 286 286 286 286 286 286 287 287 287 287 287 287 286 286
304 303 301 300 299 298 298 297 297 296 296 297 297 297 297 297 297 296 296 295 294 293 292 291 291 291 290 290 290 290 290 290 290 290 290 290 290 290 290 290 290 291 291 291 291 290 289 288 287 287 287 287 287 287 285 283 282 282 282 282 282 282 282 283 283 284 284 285 285 286 286 286 286 286 286 286 287 287 287 287 286 286 286 286 286
303 301 300 299 298 298 297 297 296 296 296 296 297 297 297 297 296 296 295 294 293 292 292 291 291 290 290 289 289 289 289 289 289 289 289 289 289 289 289 289 289 290 290 289 290 290 289 288 287 287 287 287 286 286 285 283 283 282 282 282 282 282 283 283 284 284 284 285 285 286 286 286 286 286 286 286 286 286 286 286 286 286 286 286 285
302 300 299 298 297 297 296 296 296 296 296 296 296 296 296 296 295 295 294 293 293 292 291 291 290 290 289 289 289 289 289 289 289 289 289 289 289 289 289 288 288 289 289 288 288 288 288 288 287 287 286 286 286 285 284 284 283 283 283 283 282 283 283 283 283 283 284 284 285 285 285 285 285 286 286 286 286 286 286 286 285 285 285 285 285
301 299 298 297 297 296 296 295 295 295 296 296 296 296 295 295 294 294 293 293 292 291 291 290 290 289 289 289 289 289 289 289 289 289 289 288 288 288 288 288 287 287 287 287 287 287 287 287 287 287 286 286 285 285 284 284 284 284 283 283 282 283 283 283 283 283 284 284 284 285 285 285 285 285 285 286 286 286 286 285 285 285 285 285 284
300 298 297 296 296 296 295 295 295 295 296 295 295 295 294 294 294 293 293 292 292 291 290 290 289 289 289 289 289 289 289 288 288 288 288 288 288 287 287 287 287 286 286 287 287 287 286 286 286 286 286 286 285 285 284 284 284 284 283 283 282 282 282 282 282 283 283 284 284 285 285 285 285 285 286 286 286 285 284 284 284 284 284 285 284
298 297 296 295 295 295 295 295 295 295 295 294 294 293 293 294 293 293 292 291 291 290 290 290 289 289 289 289 289 288 288 288 288 288 288 288 287 287 287 286 286 286 286 286 286 286 286 286 286 286 286 286 285 285 285 285 284 283 283 282 282 281 282 282 282 282 283 284 284 284 284 284 285 285 285 285 284 284 284 284 284 284 284 284 284
297 296 295 295 295 295 295 295 295 295 294 293 293 293 293 293 293 292 291 291 290 290 290 290 290 289 289 289 289 288 288 288 288 288 287 287 287 286 286 286 286 286 285 285 285 285 285 285 285 285 285 285 285 285 285 285 284 283 282 282 282 282 282 282 282 282 283 283 283 283 284 284 284 284 284 283 283 283 283 283 283 283 283 283 283
296 295 295 295 294 294 294 294 294 294 293 292 292 293 293 293 292 291 291 290 290 290 289 289 290 289 289 289 288 288 288 288 287 287 287 287 286 286 286 285 285 285 285 285 285 285 285 285 284 285 285 285 284 284 284 284 283 282 282 283 282 282 282 282 282 282 282 282 283 283 283 283 283 283 283 283 283 283 283 282 282 282 282 282 282
296 295 295 294 294 294 294 294 293 293 292 292 292 292 292 291 291 290 290 290 289 289 289 289 289 289 289 288 288 288 287 287 287 287 286 286 286 285 285 285 285 285 285 285 285 285 285 285 284 284 284 284 284 284 283 282 282 282 283 283 282 282 282 282 282 282 282 282 282 282 283 283 282 282 282 282 282 282 282 281 281 281 281 281 281
295 295 294 294 294 294 293 293 293 292 292 292 292 291 291 290 290 290 289 289 289 289 289 289 289 288 288 288 288 287 287 287 287 286 286 286 285 285 285 285 285 285 284 284 285 285 284 284 284 284 284 284 284 284 283 283 283 283 282 282 283 282 282 282 282 282 281 282 282 282 282 282 282 282 282 282 282 281 281 281 280 280 280 280 281
294 294 294 294 294 293 293 293 292 292 292 291 291 290 290 290 289 289 289 289 289 289 289 288 288 288 287 287 287 287 287 286 286 285 285 285 285 284 284 284 284 284 284 283 284 284 284 284 284 284 284 284 284 284 283 283 284 283 283 283 283 282 282 282 282 282 282 282 281 281 281 281 281 281 281 281 280 280 280 280 280 280 280 280 281
294 294 294 293 293 293 293 292 292 291 291 291 290 290 290 289 289 289 289 289 288 288 288 288 288 287 287 286 286 286 286 285 285 285 284 284 284 284 284 284 284 284 284 283 283 283 283 283 283 283 283 282 282 282 282 282 283 283 283 283 283 282 282 281 281 282 282 281 281 281 281 281 281 280 280 280 280 279 279 279 279 279 280 280 280
294 294 293 293 293 293 292 292 291 291 291 290 290 289 289 289 289 288 288 288 288 288 288 287 287 287 286 286 286 285 285 285 285 284 284 284 283 283 283 283 283 283 283 283 283 283 283 283 282 282 282 282 281 281 280 281 281 281 282 282 282 282 281 281 281 281 281 281 281 281 280 280 280 279 279 279 279 279 279 279 279 279 279 280 280
294 294 293 293 292 292 292 291 291 291 290 290 289 289 289 289 288 288 288 288 287 287 287 287 286 286 286 286 285 285 285 284 284 284 284 283 283 283 283 283 283 282 282 282 282 282 282 282 281 281 281 281 280 280 279 279 280 280 280 281 281 281 281 281 281 281 281 280 280 280 280 279 279 279 278 278 278 278 278 278 278 279 279 279 280
293 293 293 293 292 292 292 291 291 290 290 289 289 289 289 288 288 288 287 287 287 287 286 286 286 286 285 285 285 285 284 284 284 283 283 283 283 283 283 283 282 282 282 282 281 281 281 281 280 279 279 279 279 279 279 279 279 280 280 280 281 281 281 281 281 280 281 281 280 280 279 279 279 279 278 278 278 278 278 278 278 279 279 279 279
293 293 292 292 292 291 291 291 290 290 289 289 289 288 288 288 288 287 287 287 287 286 286 286 286 285 285 285 285 284 284 284 283 283 283 283 283 283 283 283 282 282 282 281 281 280 280 279 279 278 278 278 278 278 279 279 279 280 280 280 280 281 281 281 280 280 281 281 280 280 279 279 279 279 278 278 277 278 278 278 278 278 279 279 279
292 292 292 291 291 291 290 290 290 289 289 289 288 288 288 288 287 287 287 287 286 286 285 285 285 285 285 285 284 284 284 283 283 283 283 283 283 283 283 283 282 282 282 281 280 279 279 278 278 278 278 278 278 278 279 279 279 280 280 280 280 281 281 280 280 280 280 280 280 279 279 279 279 279 278 278 278 278 278 278 278 278 278 279 279
292 292 291 291 290 290 290 289 289 289 289 288 288 288 287 287 287 287 286 286 286 286 285 285 285 285 285 284 284 283 283 283 283 283 282 282 282 282 282 282 282 282 281 280 279 278 278 278 278 278 278 278 278 278 279 279 279 279 280 280 280 280 280 280 280 280 280 280 280 279 280 280 280 279 279 279 279 279 279 278 278 278 278 278 279
292 292 291 291 290 290 290 289 289 288 288 288 288 287 287 287 287 286 286 286 286 285 285 284 284 285 284 284 284 283 283 283 282 282 282 282 282 281 281 281 281 281 280 279 278 278 278 278 278 278 278 278 278 278 278 279 279 279 279 279 279 279 280 280 279 279 280 280 280 280 280 280 280 280 280 280 280 280 280 279 279 279 279 279 279
291 291 290 290 290 289 289 289 289 288 288 288 287 287 287 286 286 286 286 286 286 285 284 284 284 284 284 284 284 283 283 282 282 282 281 281 281 281 281 280 280 280 279 278 278 277 277 277 277 277 278 278 278 278 278 278 278 278 278 278 279 279 280 280 280 280 280 280 280 280 280 280 280 280 281 281 281 280 280 280 280 280 280 280 280
291 290 290 289 289 289 289 288 288 288 288 287 287 287 286 286 286 286 286 286 285 284 284 284 284 284 284 284 284 283 283 282 282 281 281 281 280 280 280 280 280 279 279 278 277 277 277 277 277 277 277 277 278 278 277 277 277 277 277 277 278 279 280 280 280 280 281 281 281 281 280 280 280 280 281 281 281 281 281 281 280 280 281 281 281
290 290 290 289 289 289 288 288 288 288 287 287 287 286 286 286 287 287 286 285 284 283 283 283 283 284 284 284 283 283 282 282 281 281 280 280 280 279 279 279 279 279 278 278 277 277 277 277 277 277 276 277 277 277 277 276 276 277 276 277 277 278 279 279 279 280 281 281 281 281 281 280 280 280 281 281 281 281 281 281 281 280 281 281 281
290 290 289 289 289 288 288 288 288 287 287 287 286 286 287 288 288 287 285 284 284 283 283 283 283 283 283 283 283 282 282 281 281 280 280 279 279 279 279 279 279 278 278 277 277 277 277 276 276 276 276 276 276 276 275 275 275 276 276 276 277 278 279 279 279 280 281 281 282 282 281 280 280 280 280 281 281 281 281 281 281 280 280 280 280
289 289 289 288 288 288 288 288 287 287 286 286 286 287 288 288 287 285 284 284 283 283 282 282 283 283 283 282 282 282 281 280 280 279 279 279 278 278 278 278 278 278 278 277 277 277 276 276 276 276 275 275 275 274 274 274 274 275 275 275 276 277 278 278 279 279 280 281 282 282 281 281 280 280 280 280 280 281 281 281 281 280 280 280 280
289 288 288 288 288 287 287 287 287 286 286 286 287 288 288 286 285 284 284 283 283 282 282 282 282 282 282 282 281 281 280 280 279 279 278 278 278 277 277 277 277 277 277 277 276 276 276 276 276 276 275 274 274 274 274 273 274 274 275 275 275 276 277 278 278 279 280 281 282 282 281 281 280 280 280 280 280 280 280 281 281 280 280 280 280
288 287 287 287 287 287 286 286 285 285 286 287 287 286 285 284 284 284 283 283 283 282 282 281 281 281 281 281 280 280 279 279 278 278 278 277 277 277 276 276 276 276 276 276 276 276 276 276 276 276 275 275 274 274 274 273 273 274 274 274 275 275 276 277 277 278 279 280 280 281 281 281 281 280 280 280 280 280 280 280 280 281 280 280 280
287 286 286 286 286 286 286 285 285 286 286 286 286 284 283 283 283 283 283 282 282 282 281 280 280 280 280 280 280 279 279 278 278 277 277 277 276 276 276 276 275 275 275 275 275 275 275 276 276 276 275 275 275 274 274 274 274 273 274 274 274 275 275 276 276 277 277 278 279 280 280 280 280 280 280 280 279 279 279 279 280 280 280 280 279
286 286 286 286 286 285 285 285 285 286 286 285 284 283 283 283 283 283 282 282 281 281 280 279 279 279 279 279 279 278 278 277 277 277 276 276 275 275 275 275 275 274 274 274 274 275 275 275 275 275 275 275 275 275 275 274 274 274 274 274 274 274 275 275 275 276 276 277 278 278 279 280 280 280 280 279 279 279 279 278 279 279 279 279 278
285 285 285 285 284 283 283 283 284 284 283 282 282 282 283 283 282 282 281 281 281 280 279 278 278 279 279 278 278 278 277 277 276 276 275 275 275 275 274 274 274 274 274 274 274 274 274 274 274 274 274 275 275 275 275 275 275 274 274 274 274 274 275 275 275 275 276 276 277 277 278 278 279 279 279 279 279 278 278 278 278 278 278 278 278
285 284 284 284 283 283 282 282 282 282 281 282 282 282 282 282 281 281 281 280 280 279 278 277 277 278 278 278 277 277 276 276 276 275 275 274 274 274 274 274 274 274 274 274 274 273 273 273 273 273 274 274 274 274 275 275 275 275 275 274 274 274 274 274 275 275 275 276 276 276 277 277 278 278 279 278 278 278 278 277 277 277 277 277 277
284 284 283 283 283 283 282 282 281 281 281 281 282 282 281 281 280 280 280 280 279 279 278 277 277 277 277 277 277 276 275 275 275 274 274 274 274 274 274 274 274 274 274 274 274 273 273 273 273 273 273 273 273 274 274 274 275 275 275 275 274 274 274 274 274 274 275 275 275 276 276 276 277 277 278 278 278 277 277 277 277 277 277 277 276
283 283 283 282 282 282 281 281 280 281 281 281 281 281 281 280 280 279 279 279 279 278 277 276 276 276 276 276 276 275 275 274 274 274 274 274 274 274 274 274 274 274 274 274 273 273 273 273 273 273 273 273 273 273 273 273 274 274 274 274 275 274 274 274 274 274 274 275 275 275 275 276 276 276 277 277 277 277 277 276 276 276 276 275 275
282 282 282 282 281 281 280 280 280 280 280 281 281 281 280 280 279 279 279 278 278 277 277 276 276 276 276 275 275 274 274 274 274 274 274 273 273 273 273 273 273 273 273 273 273 273 273 273 273 273 273 273 273 273 273 273 273 273 273 274 274 274 274 274 274 274 274 274 274 275 275 275 275 275 276 276 276 276 276 276 275 275 275 275 274
Wind_Speed
25 25 25 24 23 21 21 20 20 19 17 16 15 14 13 12 11 10 9 7 6 5 4 3 3 3 4 6 7 9 10 11 11 12 12 12 12 12 13 14 15 16 17 18 20 22 23 24 25 27 29 30 31 31 32 32 33 34 34 34 35 34 33 33 38 49 57 57 57 59 58 58 59 58 58 59 58 56 55 54 52 50 49 47 48
25 24 23 23 22 21 21 20 20 19 18 17 15 14 14 12 11 10 9 8 7 5 4 3 3 4 5 7 8 10 11 11 11 12 12 13 14 14 16 16 17 18 19 20 22 23 24 25 26 28 29 30 30 30 32 33 33 35 35 35 36 36 34 34 37 44 54 58 59 59 60 59 60 61 60 59 60 60 59 57 53 52 51 48 46
24 23 23 23 22 22 21 20 20 19 17 17 16 15 14 13 12 11 9 8 6 5 4 3 3 5 6 8 9 10 11 12 12 13 13 14 15 16 17 18 19 20 21 22 23 24 25 25 26 27 27 28 29 29 31 32 33 35 36 35 37 37 35 34 36 41 49 56 59 61 61 60 61 62 61 60 60 59 59 59 56 54 53 49 45
24 23 23 23 23 22 21 20 20 19 18 17 16 16 15 13 13 11 9 8 6 5 4 3 3 5 7 8 10 10 12 13 13 14 15 16 16 17 18 19 20 21 22 23 23 24 24 25 25 26 27 28 29 30 31 33 34 35 37 37 38 39 38 36 37 40 45 52 58 61 61 62 63 63 62 61 60 58 56 57 57 55 54 51 47
23 24 23 23 23 22 21 21 20 19 18 18 17 17 15 14 12 11 9 7 5 4 3 3 4 6 7 8 10 11 12 13 14 15 16 17 17 18 19 20 20 21 22 22 23 23 24 25 26 27 29 31 32 33 34 35 36 37 38 39 40 41 41 41 40 41 43 49 56 61 62 63 64 65 63 59 58 59 57 56 56 54 53 51 49
24 24 23 23 23 22 22 21 21 20 20 19 18 17 15 14 12 10 8 6 4 3 3 3 5 6 8 9 11 12 13 14 15 15 16 17 18 19 20 21 22 22 22 22 22 23 25 26 27 29 31 33 35 36 37 38 40 41 42 43 43 44 45 45 44 43 44 48 53 58 62 63 63 65 64 57 54 56 55 55 55 52 50 51 51
25 24 24 23 23 22 22 22 22 21 20 19 18 17 15 13 11 9 8 6 5 4 3 4 5 7 9 10 12 13 14 15 16 16 18 19 19 20 21 22 22 21 21 22 23 24 26 27 29 31 33 35 37 39 40 42 43 45 45 46 46 47 48 48 46 45 45 46 51 55 59 61 61 62 63 59 55 53 52 51 54 54 52 52 52
25 25 24 24 23 23 23 23 22 22 21 20 18 16 14 12 11 9 8 7 5 4 4 4 6 8 10 11 13 14 14 15 16 17 18 20 20 21 21 22 22 22 22 23 24 25 27 30 31 34 35 37 39 40 42 43 45 47 48 48 48 49 50 50 48 46 44 45 49 53 55 57 59 60 60 58 56 55 52 52 55 57 55 53 53
26 26 25 25 25 25 24 24 23 22 21 20 18 16 14 12 11 10 8 7 5 4 4 5 7 9 10 12 13 13 14 15 17 18 19 20 20 21 21 21 22 24 24 25 27 28 30 32 34 36 38 39 40 42 43 43 45 48 49 49 49 49 49 50 48 45 43 44 48 51 53 55 57 57 57 57 56 56 55 54 55 55 54 55 55
27 27 27 27 26 26 25 25 24 23 21 19 17 15 14 13 11 10 8 6 5 4 4 6 8 9 10 11 12 13 14 16 17 19 20 21 21 21 22 23 24 26 28 29 30 32 33 35 37 39 40 41 43 44 45 45 46 47 48 49 49 48 48 49 47 43 41 43 47 49 51 53 54 54 55 56 55 54 54 52 53 54 54 56 56
28 28 28 28 27 27 26 25 24 23 21 19 17 16 14 13 11 10 8 6 4 4 5 7 8 9 10 11 12 13 14 16 17 19 20 21 22 23 24 25 26 28 30 32 34 35 36 38 39 41 42 44 45 46 47 48 48 49 49 49 48 46 44 42 42 42 42 44 47 48 49 53 54 53 54 54 52 51 52 52 53 55 53 53 55
30 30 29 29 28 28 27 26 24 22 21 19 17 16 15 13 11 9 7 5 4 5 6 7 8 9 10 10 12 13 15 16 18 19 20 21 23 24 26 27 28 29 31 33 35 37 39 41 42 44 45 46 47 48 49 50 50 50 51 51 50 48 43 38 38 40 42 44 47 49 50 53 53 52 51 50 49 50 53 53 52 53 52 52 53
32 31 31 30 30 29 27 26 24 22 20 19 17 16 15 13 11 9 7 5 5 5 6 8 9 9 10 11 12 14 16 17 18 20 21 23 24 25 26 28 29 31 32 35 37 39 41 43 45 46 47 48 48 49 51 52 53 53 53 53 52 50 46 41 38 40 42 44 47 50 51 51 51 51 50 48 49 52 54 52 50 50 52 53 53
33 33 32 31 30 29 28 26 24 22 21 19 18 16 14 12 10 9 7 6 5 6 7 8 9 10 11 11 13 15 17 18 19 21 22 23 25 26 27 29 30 32 34 36 39 41 43 44 46 47 48 49 49 50 51 53 55 56 56 55 53 50 47 44 42 42 43 43 46 49 49 49 49 50 49 48 50 51 51 51 51 52 53 53 54
35 34 33 32 31 30 28 26 24 23 21 20 18 16 14 12 10 9 7 5 5 6 7 8 9 11 12 13 14 16 17 19 20 22 23 24 26 27 28 30 32 34 36 38 40 42 43 44 46 47 49 50 50 50 49 50 52 53 54 54 53 52 50 47 45 45 45 46 48 49 49 49 49 50 50 49 49 49 49 50 51 51 51 51 52
36 35 34 33 32 30 28 26 25 24 22 20 18 16 14 12 10 8 6 5 5 6 7 9 10 11 13 14 15 16 17 19 21 23 24 26 27 28 30 32 34 36 37 39 41 42 43 44 46 47 49 50 50 49 47 46 47 50 51 53 54 54 53 50 48 48 48 48 48 47 48 48 47 47 47 46 46 48 48 49 49 47 48 50 51
37 36 35 34 32 30 29 27 25 24 22 20 18 16 14 12 10 8 6 6 6 7 8 9 11 12 14 15 16 16 17 19 21 24 25 27 29 30 32 34 36 37 39 40 42 43 43 44 46 47 49 50 51 50 47 43 43 46 48 49 51 52 53 52 50 48 47 46 46 48 47 45 43 43 43 42 43 44 46 48 48 46 48 51 51
38 37 35 34 32 31 29 27 25 23 22 20 18 16 14 11 9 7 7 6 7 7 9 10 12 13 15 15 16 17 18 20 22 24 26 28 30 32 34 36 38 39 40 41 42 43 44 45 46 48 50 51 51 51 47 42 41 43 45 46 48 50 51 49 48 48 47 46 47 48 47 46 44 43 44 44 42 41 42 45 45 45 47 49 49
38 37 36 34 33 31 29 28 25 23 21 20 18 15 13 10 9 8 7 7 8 8 10 11 13 14 15 16 17 18 19 21 23 25 27 29 31 34 36 38 39 41 42 43 43 44 45 46 47 48 49 50 50 49 46 41 39 41 43 45 47 48 46 45 46 49 50 49 48 47 46 46 45 46 46 45 42 41 42 43 42 43 45 47 48
38 37 36 35 33 32 29 27 25 23 21 19 16 14 12 11 9 8 8 8 9 10 11 12 14 15 16 17 18 19 21 22 24 25 27 30 32 35 37 39 41 42 43 44 45 46 47 48 48 48 48 48 47 46 44 41 39 39 40 41 42 42 42 43 45 46 47 47 46 46 46 46 47 47 46 45 45 44 42 40 41 42 44 47 49
39 38 37 35 34 32 29 27 25 23 21 18 16 14 12 11 9 9 8 9 10 11 12 14 15 15 16 17 18 20 22 23 24 26 28 31 33 35 37 39 40 42 44 45 46 47 48 49 50 50 49 47 45 43 42 41 40 38 37 37 37 39 41 43 44 44 44 44 44 45 46 47 48 48 47 47 45 42 39 42 45 45 45 46 46
39 38 37 36 34 31 29 27 25 22 20 18 16 14 12 11 10 9 9 10 11 12 14 15 15 16 16 18 19 21 22 24 26 27 30 32 34 35 37 38 40 42 44 45 46 48 49 50 50 50 48 46 44 42 42 41 40 39 38 37 37 39 40 42 43 43 43 43 44 46 47 48 48 48 47 45 42 40 44 48 48 44 41 39 37
40 39 37 35 33 31 29 26 24 22 20 18 16 14 13 11 10 10 10 11 13 14 15 16 17 17 18 19 20 21 22 24 27 29 31 33 34 36 37 38 39 41 43 45 46 48 49 49 50 49 46 44 43 42 42 41 40 40 39 38 37 38 39 40 41 41 42 43 44 46 47 48 48 47 45 44 44 48 49 47 42 38 34 32 30
40 38 37 35 32 30 28 26 24 22 20 18 16 14 13 11 11 11 12 13 14 15 17 18 19 20 20 20 20 21 22 25 27 30 31 33 35 36 37 38 39 40 42 43 45 46 47 48 48 46 44 42 42 42 42 40 39 39 40 39 37 37 38 39 39 40 42 43 45 46 47 46 45 44 45 48 49 49 45 39 35 33 30 29 28
40 38 36 34 32 30 28 26 24 21 19 18 16 14 13 12 13 13 14 14 16 17 18 19 21 22 22 22 22 22 23 25 28 30 32 33 35 36 37 39 39 40 41 42 43 45 45 45 45 44 42 40 41 41 41 40 39 39 39 38 38 38 38 37 37 39 41 44 45 46 46 45 45 46 47 47 44 40 37 34 31 29 28 26 26
39 38 36 34 32 30 27 25 23 21 19 17 16 14 14 14 14 15 15 16 17 18 19 21 22 22 23 23 23 23 25 27 29 31 33 35 36 37 38 39 40 40 41 42 43 44 44 44 43 42 41 40 39 39 40 39 39 39 38 38 38 38 37 36 37 38 40 43 44 45 47 48 48 46 43 39 36 35 33 31 29 27 25 23 23
39 38 36 34 31 29 27 25 23 21 19 18 16 16 15 15 16 16 16 17 18 19 21 22 23 23 23 23 24 24 26 28 30 32 34 36 37 38 39 40 40 41 41 43 44 44 44 43 42 41 39 38 38 37 38 38 38 37 37 37 37 37 37 36 36 37 39 41 43 46 47 47 44 41 37 34 32 31 30 29 28 25 22 20 20
38 37 35 33 30 29 26 24 22 21 20 19 18 17 17 17 17 17 17 18 19 20 22 22 23 23 23 24 24 25 27 29 31 33 35 36 37 38 39 39 40 41 41 42 44 44 43 42 42 40 39 38 38 38 38 38 38 37 37 37 37 38 39 39 39 40 41 41 43 44 44 41 38 36 34 32 30 29 28 27 25 22 18 17 16
38 36 34 32 30 28 26 25 23 22 21 20 19 18 18 18 18 18 18 19 20 21 22 22 22 22 22 23 25 26 28 29 30 32 33 34 35 37 38 38 39 40 40 40 41 42 42 41 41 40 40 39 40 40 40 40 39 38 37 37 39 41 42 42 43 43 43 43 42 41 38 36 34 33 31 30 28 28 27 25 22 19 16 14 12
37 36 34 32 30 29 27 26 25 23 22 20 20 19 19 18 19 19 19 20 21 21 21 22 22 22 21 22 24 25 27 28 29 30 31 32 32 34 35 35 36 38 38 38 38 39 39 40 39 39 39 38 38 39 39 39 38 38 38 39 40 42 43 43 43 43 43 41 38 36 34 33 33 32 30 29 28 26 25 23 20 16 13 12 10
38 36 34 32 31 30 28 27 25 24 22 21 21 20 20 20 20 20 20 21 21 20 20 21 21 20 21 22 22 24 25 27 28 29 30 30 31 32 33 33 34 36 37 37 37 37 37 38 38 37 36 36 36 36 37 37 37 38 38 40 41 42 43 44 43 43 41 38 35 33 32 32 32 31 29 28 26 25 23 21 18 14 11 10 8
38 36 34 33 31 30 29 27 26 24 23 22 22 21 21 21 21 21 21 21 20 19 19 20 19 19 20 21 22 24 25 26 27 28 29 29 30 31 31 32 33 33 34 34 33 34 34 34 34 34 34 34 34 35 35 36 36 36 37 39 41 42 42 43 43 41 37 34 33 32 31 31 31 30 28 26 24 23 21 19 16 13 10 7 6
36 34 33 33 32 31 29 28 26 25 24 23 23 22 22 23 23 23 22 20 19 19 19 19 18 18 19 20 22 23 25 26 27 27 28 29 30 30 31 31 31 32 32 32 31 31 31 31 31 32 32 33 33 33 33 33 34 34 35 38 40 41 41 42 42 39 34 31 30 30 30 30 30 27 25 24 22 21 20 18 14 11 8 6 4
36 34 34 33 32 31 30 28 27 26 25 24 24 24 24 24 24 23 22 20 20 20 19 18 17 18 18 20 21 22 24 25 26 27 28 29 30 30 31 30 30 30 30 30 30 29 30 30 30 30 31 31 31 32 32 32 32 34 36 38 39 40 40 41 40 37 32 29 28 28 28 28 27 25 23 22 21 20 18 16 13 9 7 5 4
37 36 34 33 32 31 30 29 28 26 26 25 25 25 25 25 24 23 22 21 21 20 18 17 16 17 18 19 20 22 23 24 25 26 27 28 28 29 30 30 30 30 30 29 29 28 28 28 28 29 30 30 30 31 32 32 33 34 36 39 40 39 39 39 38 34 30 27 26 26 26 25 24 23 22 21 20 19 17 14 11 8 5 3 4
38 37 36 35 34 32 31 30 28 27 27 27 27 27 27 26 25 23 23 22 21 19 17 16 16 17 18 19 20 21 22 23 24 24 25 26 27 28 29 30 30 30 30 29 28 26 25 25 26 27 27 29 30 31 32 33 34 35 36 38 38 37 36 36 35 31 27 25 23 23 23 23 22 21 21 20 19 18 16 13 10 7 3 1 5
39 38 37 35 34 33 32 31 30 29 29 28 28 28 27 26 25 25 24 23 21 19 17 16 16 17 18 18 19 20 21 22 22 23 23 24 24 25 26 27 28 28 28 27 26 25 24 24 24 25 26 28 30 31 32 33 34 35 36 36 35 34 33 33 32 28 25 23 21 20 20 20 19 19 18 17 16 15 14 12 9 6 2 3 6
39 38 37 36 35 34 33 32 31 31 31 30 30 29 27 26 25 25 24 23 21 19 18 18 17 17 17 18 19 20 20 21 21 20 21 21 22 23 23 24 25 26 27 26 25 25 24 24 24 25 26 27 29 31 32 33 34 34 35 35 33 31 30 30 29 26 22 20 19 18 18 18 17 17 15 14 13 13 12 11 9 6 4 5 7
40 38 37 37 36 35 35 34 33 32 32 31 30 28 27 26 25 25 24 23 21 20 18 18 17 17 18 19 20 20 20 20 20 20 20 21 21 22 22 23 23 24 25 25 25 24 24 24 25 25 26 27 28 30 31 33 33 34 34 33 32 29 28 29 28 25 21 19 17 16 16 16 15 14 13 12 11 11 11 9 8 6 5 5 7
41 40 39 38 38 37 37 36 35 34 32 31 30 28 27 26 26 26 26 24 21 19 18 17 17 17 18 19 20 20 20 20 20 20 20 20 20 20 21 21 22 23 24 25 25 25 25 25 25 26 26 26 27 28 30 31 32 32 32 32 31 29 28 27 27 24 20 17 15 14 14 13 12 12 11 10 9 9 8 7 6 5 4 4 5
41 41 41 40 40 39 38 37 36 34 32 31 29 28 27 28 29 28 27 24 21 19 17 16 16 16 17 17 18 18 18 18 18 18 18 18 18 18 19 20 21 22 23 24 25 25 25 25 26 26 26 26 26 26 28 29 30 31 31 30 30 29 27 26 25 22 19 17 14 12 11 11 11 10 9 8 7 6 5 4 3 3 3 3 3
42 42 42 42 42 41 39 38 36 34 32 31 30 29 30 30 30 29 26 24 21 19 17 16 16 16 15 16 16 16 16 16 16 16 15 16 16 16 17 18 19 20 21 23 24 25 25 25 26 26 27 26 26 25 26 27 28 29 29 30 29 29 28 26 24 21 19 17 15 12 10 10 10 9 8 7 6 6 5 3 0 1 3 3 4
44 44 43 43 42 40 38 37 35 34 33 31 30 31 32 31 30 28 26 23 21 19 17 16 16 15 14 14 14 14 14 14 14 13 13 14 14 15 15 16 17 18 19 21 22 23 24 25 25 25 25 26 25 25 24 25 27 27 28 28 28 28 27 26 24 22 19 16 15 13 11 10 9 9 8 8 7 7 6 5 4 4 5 5 6
45 45 44 43 42 40 38 37 35 34 33 32 32 32 31 30 29 27 24 22 21 19 17 16 14 13 13 12 12 12 12 12 12 12 12 12 13 13 14 15 16 17 18 19 20 22 23 23 23 23 24 24 24 24 23 23 24 25 26 27 27 27 26 25 24 23 21 18 15 13 11 9 8 9 9 9 8 8 8 8 8 7 7 7 8
45 45 45 43 42 41 39 37 36 35 34 34 33 32 30 29 27 26 24 23 21 19 17 15 13 12 12 11 11 11 11 11 11 11 11 11 11 12 13 14 15 16 17 18 19 20 21 22 23 23 23 23 23 23 22 22 21 21 22 23 25 25 25 24 24 23 22 20 18 15 13 10 8 8 8 9 9 9 9 10 10 10 9 9 9
46 45 44 44 43 41 40 39 38 36 35 34 33 31 30 29 27 26 24 23 21 18 16 14 13 12 11 11 10 10 10 10 10 10 10 10 10 11 12 13 14 15 16 18 19 20 21 22 22 23 23 23 23 23 23 22 21 20 19 20 21 21 22 22 22 22 21 20 19 17 16 13 11 9 8 8 9 10 10 10 11 11 11 10 10
46 45 45 45 43 42 40 38 36 35 34 33 32 30 29 29 27 26 24 22 19 18 16 14 13 12 11 10 10 10 9 9 9 9 9 9 10 10 11 12 13 14 15 16 18 19 20 21 22 22 22 22 22 22 22 22 21 20 19 19 18 19 19 19 20 20 20 19 19 18 17 16 14 12 10 9 9 9 10 10 11 11 10 10 10
45 45 45 44 43 41 39 37 35 34 33 32 31 30 29 28 27 25 23 21 19 17 16 15 14 13 11 11 10 10 9 9 9 8 9 9 9 10 11 12 13 14 15 16 17 18 19 20 21 22 22 22 22 21 22 22 21 21 20 19 18 18 18 18 18 18 18 18 18 17 16 15 14 12 10 9 8 8 7 7 8 9 9 9 9
45 45 45 44 43 42 39 37 36 35 33 32 31 30 29 28 26 24 22 20 19 17 16 16 15 13 12 11 11 10 10 9 9 8 9 9 9 10 11 12 12 13 15 16 17 18 19 20 21 21 22 22 22 22 22 22 21 21 21 20 20 19 18 17 17 17 17 17 16 16 15 14 12 11 9 7 5 5 4 4 5 6 7 8 8
44 44 44 43 42 41 39 37 36 34 33 32 31 30 29 28 26 24 22 20 19 18 17 17 15 14 13 12 12 11 11 10 9 9 9 9 10 10 11 12 12 14 15 16 17 18 19 19 20 21 22 22 22 22 22 21 21 21 21 21 20 20 19 18 18 17 17 16 15 15 14 13 11 10 8 6 5 3 2 2 3 5 6 7 8
42 43 43 42 41 40 38 37 36 35 34 32 31 30 28 27 25 23 22 21 19 18 18 17 16 15 14 13 13 13 12 11 10 9 9 9 10 10 11 12 13 14 15 16 17 18 19 20 21 22 22 22 23 22 22 22 21 21 21 21 20 20 20 19 19 18 18 17 16 15 14 13 12 10 9 8 7 5 5 5 6 6 7 8 8
Wind_Direction
167 166 165 165 166 167 166 167 166 168 170 172 175 176 177 179 180 182 185 185 187 193 203 224 255 286 302 310 317 318 317 317 316 316 316 316 319 320 322 324 325 326 328 329 330 330 331 332 332 331 330 329 330 330 328 326 324 323 323 321 320 318 316 311 304 304 309 313 312 313 315 314 314 315 314 312 313 313 312 312 312 312 312 312 312
165 166 165 166 169 170 170 170 171 173 174 175 176 179 180 181 182 186 188 190 194 199 212 237 262 290 305 312 317 317 316 317 316 317 318 318 320 321 322 324 324 325 327 328 329 330 330 331 331 330 329 329 330 330 328 326 325 324 323 321 319 317 315 310 306 303 306 313 316 315 317 315 314 315 314 311 312 313 312 312 312 312 312 312 311
169 170 170 171 172 173 174 174 174 176 177 177 179 181 184 184 185 188 190 194 199 206 221 248 275 297 311 315 317 317 317 317 316 316 316 315 317 319 320 322 324 326 328 329 330 330 330 330 331 331 330 331 332 331 329 328 327 325 323 323 319 318 316 310 305 303 303 310 315 317 317 316 314 314 313 310 311 311 311 312 312 313 313 312 310
173 174 175 175 175 176 177 177 177 178 179 181 183 185 186 187 187 188 192 197 203 212 233 265 292 308 316 317 317 317 315 314 314 313 313 314 316 318 321 323 325 328 329 330 331 331 331 332 334 334 333 333 333 332 330 328 327 324 323 323 321 319 317 311 306 304 302 305 311 314 314 313 313 313 311 310 310 310 310 311 312 312 312 311 310
178 178 178 178 178 178 180 180 180 182 183 184 187 188 188 190 190 191 194 199 208 219 247 285 305 314 316 315 315 314 313 312 311 312 314 317 319 321 323 325 326 328 330 330 331 332 333 335 337 336 334 333 333 332 330 328 327 325 323 323 322 319 317 313 309 306 302 302 306 310 312 311 311 311 310 309 309 310 310 311 312 312 312 311 309
182 181 182 182 182 182 183 184 184 185 187 188 190 191 192 193 193 195 197 201 213 232 263 295 306 312 314 315 315 313 312 312 313 315 317 318 320 322 324 325 327 328 329 330 331 333 335 336 336 336 334 332 332 331 330 328 327 325 324 323 322 319 316 314 311 308 304 302 302 305 308 309 308 308 309 309 307 308 309 311 311 311 310 309 307
185 185 185 187 187 186 186 187 187 189 191 192 193 194 195 196 196 198 202 208 221 244 272 293 306 314 316 316 315 313 314 314 315 316 317 318 320 321 322 323 324 325 327 329 331 333 334 335 335 334 333 331 331 330 329 328 326 325 324 322 320 318 315 313 311 308 304 301 300 301 303 305 305 305 307 308 307 307 309 310 309 308 308 307 306
188 188 189 189 190 190 189 190 190 192 194 195 196 197 197 198 199 201 207 215 225 244 271 296 312 317 317 316 314 314 314 314 314 315 315 317 318 319 321 320 320 322 325 327 330 332 333 333 333 332 332 330 330 329 328 326 324 323 322 320 318 316 314 312 311 308 304 301 300 300 300 302 303 303 306 308 307 307 309 309 307 308 308 308 306
192 192 192 192 193 194 193 193 194 195 196 197 197 198 198 198 201 205 209 215 226 247 278 305 316 316 315 315 314 313 313 312 313 313 314 316 316 317 318 318 320 323 324 326 329 331 331 331 331 330 329 328 327 326 326 324 323 322 321 319 317 316 314 313 311 308 304 301 299 300 300 300 301 303 304 305 306 307 309 309 307 307 308 307 305
196 195 195 195 196 197 197 197 197 197 198 198 198 198 199 201 204 208 212 218 232 259 291 307 313 314 313 313 312 311 311 311 312 314 315 315 316 316 317 319 322 324 325 326 328 329 330 329 328 328 327 326 325 324 324 323 322 321 319 318 317 316 314 313 310 307 304 301 299 300 300 298 299 301 302 304 306 308 308 308 306 306 306 305 303
198 198 198 198 199 199 200 199 199 199 198 199 199 200 202 205 207 210 215 225 243 269 295 305 309 312 312 311 310 309 309 311 312 314 314 314 315 317 318 320 322 324 325 326 326 327 327 326 326 326 325 324 324 324 324 323 322 321 320 319 318 317 315 311 308 306 305 302 301 300 300 299 301 302 303 305 307 307 307 305 304 304 303 302 300
200 200 200 201 201 201 202 201 200 200 200 200 201 203 205 207 209 212 217 229 252 276 295 304 310 312 312 311 309 308 310 311 312 313 313 313 314 316 317 319 321 323 324 325 325 325 325 325 324 325 325 325 325 325 324 323 322 322 321 320 319 319 317 311 306 306 306 305 304 302 302 303 303 304 305 305 305 306 306 305 304 303 301 299 297
201 202 202 203 204 203 203 203 201 201 202 202 204 206 207 209 209 213 220 234 256 280 297 307 312 313 312 311 310 310 312 312 312 312 311 311 312 313 315 317 319 321 322 323 324 324 324 324 323 323 325 326 327 326 325 324 323 323 322 322 321 320 318 314 310 309 307 306 304 303 304 305 304 305 305 304 304 306 306 305 304 303 302 299 298
203 204 204 204 204 204 204 203 202 203 204 205 207 208 208 209 210 215 224 240 265 289 303 310 313 311 311 312 311 312 313 312 310 310 309 309 311 312 314 316 318 320 321 322 323 323 324 324 323 323 324 327 328 329 327 325 325 324 323 322 320 318 316 314 313 311 309 307 305 304 306 306 304 304 304 303 304 306 305 304 303 303 302 301 300
205 205 205 205 205 205 205 203 203 205 206 208 208 208 208 210 213 221 232 250 275 296 305 308 310 310 310 311 311 311 311 309 308 307 308 309 310 311 313 315 317 319 320 321 322 323 323 323 323 324 325 327 329 329 328 326 324 322 321 320 320 319 318 317 318 316 313 311 308 306 306 306 304 303 304 304 304 304 304 304 304 303 302 302 300
206 205 206 207 206 206 205 205 206 207 209 209 208 208 210 212 218 227 242 264 283 297 304 307 308 308 308 309 309 308 307 307 307 307 308 309 310 312 313 314 316 318 320 321 322 322 323 324 324 325 325 327 328 328 327 326 324 323 323 323 323 321 320 320 319 316 313 312 309 308 307 306 306 305 305 306 306 306 306 306 304 303 302 301 299
208 207 207 207 207 206 206 207 209 209 209 208 208 209 212 216 223 235 252 270 286 298 302 304 305 305 305 306 306 305 305 305 306 306 308 310 311 313 314 315 317 318 319 320 321 322 324 326 327 326 326 327 328 328 329 329 327 326 325 323 322 320 319 319 318 317 317 316 313 311 310 310 310 308 306 307 308 308 306 304 304 305 304 302 301
209 209 208 207 207 207 207 208 210 210 209 208 209 211 214 220 229 242 258 273 287 295 298 301 303 303 302 302 303 304 305 305 306 308 310 312 313 314 315 316 317 318 318 319 319 322 325 328 329 328 328 330 329 329 332 332 328 325 324 322 320 318 319 322 322 322 323 321 317 315 315 315 313 310 310 309 309 308 305 301 303 305 303 302 302
210 209 208 208 208 208 209 209 209 208 209 209 210 213 218 224 234 245 260 275 286 292 295 298 300 300 300 301 303 305 306 307 308 310 312 314 316 317 318 318 319 319 319 319 319 322 326 329 330 330 331 331 331 331 333 333 328 324 323 321 319 320 323 325 323 322 322 320 318 318 317 316 314 314 314 312 310 310 306 303 305 305 301 301 302
210 209 209 208 208 208 209 208 208 208 209 211 212 216 222 229 238 250 262 275 285 291 294 295 295 296 298 300 303 305 307 308 309 311 314 316 318 319 320 321 320 320 321 322 323 324 326 328 330 332 333 333 333 334 334 333 329 325 322 321 319 320 323 322 319 320 320 319 319 318 318 317 317 317 317 315 313 312 310 309 310 308 302 301 301
210 209 208 208 208 208 208 207 208 208 209 211 215 220 226 232 242 253 264 276 284 289 292 292 292 293 296 299 302 304 306 307 309 312 316 318 320 321 322 322 323 323 323 325 327 327 328 328 330 333 334 334 334 333 332 332 330 327 325 324 321 318 318 318 318 321 322 321 320 320 319 319 320 320 319 317 315 312 311 311 311 308 303 301 300
211 209 208 208 208 208 208 208 208 209 211 213 217 223 229 235 245 254 266 277 283 287 289 289 290 292 295 298 300 303 306 309 311 315 318 321 323 323 324 325 326 326 326 327 328 329 329 330 332 334 335 334 333 332 331 331 330 328 328 328 324 319 318 319 321 323 323 323 322 321 321 321 321 321 320 318 315 312 311 311 309 306 303 302 302
210 209 208 208 208 208 208 209 209 210 212 215 219 225 231 238 248 260 269 276 280 283 286 287 288 289 292 296 300 304 308 312 315 318 321 323 324 325 326 327 328 329 329 330 330 330 330 332 333 334 334 333 332 331 330 330 329 329 330 330 327 323 323 324 325 325 324 323 322 321 321 321 321 321 319 316 313 312 312 311 310 309 308 308 308
209 208 208 208 208 209 209 210 211 212 214 217 221 226 233 243 254 262 268 272 277 281 284 285 287 289 292 296 300 305 310 314 317 320 322 324 325 326 327 329 330 331 331 331 331 330 331 332 333 334 333 332 330 329 328 327 329 331 333 332 330 329 329 330 331 330 327 325 323 322 321 321 321 319 315 313 312 313 312 313 314 315 317 319 318
209 208 208 209 209 210 211 211 212 214 215 218 223 229 239 249 255 259 265 271 276 280 282 285 288 292 296 300 304 308 313 316 319 322 324 325 327 328 329 330 332 332 332 331 331 331 331 333 334 333 332 329 327 326 325 326 330 334 334 334 335 335 335 335 334 332 329 326 324 323 322 321 319 315 314 314 314 314 316 318 322 323 324 324 321
209 209 210 210 210 211 212 212 213 215 217 220 226 233 242 248 253 259 265 270 274 278 282 286 291 295 299 303 307 311 316 319 322 325 327 328 329 331 332 332 333 333 333 332 331 332 333 334 333 332 329 327 325 326 327 330 333 333 334 337 339 337 337 337 335 332 328 326 324 323 321 319 317 317 318 319 318 321 324 326 329 329 326 322 318
211 211 211 211 212 213 213 214 215 216 219 223 228 234 241 246 252 258 264 268 274 279 283 288 292 296 300 304 309 314 319 322 325 327 329 331 332 333 333 333 333 333 333 333 332 333 333 333 332 330 328 327 327 329 332 333 334 335 337 339 339 337 337 337 334 330 328 326 324 321 320 320 321 322 324 325 325 328 331 331 331 330 325 318 314
213 213 213 213 214 214 215 216 217 219 222 225 230 235 240 246 251 257 263 268 274 279 283 288 292 297 302 306 311 317 321 324 327 330 331 333 333 332 333 334 334 335 334 334 333 333 333 332 331 330 329 330 331 332 333 332 333 337 341 340 338 337 338 338 335 332 331 329 326 324 324 326 327 329 330 331 333 334 334 334 332 328 321 314 310
213 214 214 214 215 216 217 218 219 222 225 228 231 235 240 246 252 257 263 269 274 278 283 288 293 299 305 310 314 318 322 327 331 333 333 333 333 333 334 335 335 334 334 334 333 333 332 331 331 332 333 334 334 333 332 333 334 337 340 339 339 340 341 341 339 337 334 332 330 330 331 332 333 334 334 336 337 336 336 336 333 326 317 309 303
215 214 215 216 217 218 219 220 221 224 227 230 233 237 242 247 252 258 263 267 271 277 283 289 295 301 308 314 318 321 325 330 332 333 333 334 334 334 334 335 334 333 333 333 333 333 333 333 335 337 338 338 337 337 336 338 338 338 338 338 341 343 344 343 341 338 335 335 334 335 336 337 337 338 338 339 339 337 336 336 333 325 315 305 299
218 217 217 217 219 220 221 222 224 226 229 231 235 239 243 248 253 258 262 266 271 278 285 290 296 302 309 314 319 323 326 329 330 332 333 334 334 334 335 335 335 334 333 333 334 335 336 336 337 338 338 339 341 341 341 342 341 339 339 339 342 345 345 342 340 338 336 337 338 339 341 341 341 341 341 341 340 338 336 336 334 325 313 302 294
220 220 220 220 221 221 223 225 227 229 231 233 237 240 244 248 252 256 260 264 271 278 283 288 294 302 308 314 319 322 325 327 329 331 332 333 334 335 335 335 336 335 335 336 337 338 340 340 340 341 342 343 344 344 345 344 341 339 341 343 344 345 343 340 339 338 337 339 341 342 344 345 344 344 344 344 342 339 337 337 335 326 313 299 282
222 222 223 223 223 224 226 227 229 230 233 235 239 242 246 249 252 255 259 264 271 276 280 286 294 302 309 315 318 321 324 327 329 331 332 332 332 333 333 335 336 336 336 338 341 344 345 345 346 348 349 349 347 345 345 343 339 338 342 345 344 343 341 338 338 338 338 341 343 344 347 349 347 347 347 346 344 341 339 339 337 327 313 294 259
223 223 224 226 227 228 229 230 231 232 233 236 240 242 245 249 251 255 259 263 268 272 277 284 294 302 308 313 317 321 324 327 328 330 330 330 330 330 331 333 334 335 337 340 345 347 348 349 351 352 350 349 347 344 342 340 338 338 340 342 341 341 339 338 338 338 340 342 345 348 351 352 350 349 350 348 345 343 341 339 334 326 313 290 229
224 224 225 226 228 230 231 232 232 234 235 238 240 242 245 248 250 252 256 261 265 269 274 283 291 299 305 310 316 320 324 326 327 327 328 327 327 328 330 331 333 336 340 344 347 350 351 350 351 350 347 345 344 343 341 339 339 339 339 338 339 340 340 339 339 339 341 344 347 352 355 354 353 353 353 351 348 345 342 339 335 331 320 279 200
226 226 226 227 228 230 231 232 234 235 237 239 241 243 245 247 249 252 256 261 265 268 272 280 287 295 302 309 315 320 322 324 324 325 326 327 328 329 331 333 336 339 342 344 347 350 351 349 347 346 344 342 341 341 340 340 340 339 338 338 338 340 340 340 339 340 342 344 349 355 357 356 356 358 358 356 353 349 346 345 344 345 336 229 176
228 229 229 230 231 232 232 234 235 235 237 239 241 243 245 247 250 254 259 263 267 270 273 278 286 294 302 308 313 318 320 322 324 325 326 328 329 330 332 335 338 341 343 344 345 346 347 345 343 342 340 339 339 339 339 339 340 339 338 339 340 340 341 341 340 340 342 344 349 357 359 358 359 2 2 1 359 356 356 357 359 11 46 152 163
230 231 232 232 233 234 234 235 235 236 238 239 241 243 246 247 250 256 261 265 268 270 272 277 284 292 300 306 311 316 319 321 323 324 325 326 328 331 334 338 340 342 343 344 343 342 342 341 339 338 338 337 337 336 337 338 340 341 340 341 342 342 341 341 341 342 343 345 350 359 1 360 1 4 4 5 5 3 5 11 19 41 84 128 145
231 232 232 233 234 235 235 236 237 238 238 240 241 244 245 247 252 259 264 266 266 266 270 277 284 292 299 305 310 314 317 319 321 324 326 329 332 334 337 339 341 342 344 345 345 344 342 339 337 336 336 336 335 336 337 339 341 343 344 344 344 343 342 342 344 345 346 345 351 360 2 1 2 4 4 5 7 8 14 25 39 61 93 118 130
234 233 234 234 234 235 235 236 237 237 238 240 242 244 245 251 259 264 263 261 261 264 269 276 284 292 298 303 308 312 316 319 323 326 329 332 334 335 337 338 339 342 344 346 348 349 348 345 341 338 337 337 336 337 338 341 343 345 347 348 348 345 343 343 345 348 348 346 348 357 2 0 0 2 1 1 3 6 16 35 54 72 94 116 128
236 236 236 236 236 236 236 237 237 238 239 241 242 244 251 259 263 261 257 256 258 262 267 274 282 290 297 302 307 312 316 320 324 327 329 332 334 336 338 338 339 341 344 345 348 350 351 351 349 344 342 341 341 340 341 343 344 347 350 351 350 347 344 343 345 349 352 349 345 351 359 358 355 354 353 352 350 351 359 24 62 88 114 135 145
237 237 237 237 237 237 237 238 239 239 239 240 242 249 257 260 257 254 253 254 257 259 264 272 279 286 295 301 307 312 315 318 322 326 330 333 335 337 339 340 340 342 344 345 347 349 350 352 352 349 347 346 345 344 344 343 345 348 351 353 351 348 345 344 344 348 351 350 345 346 353 354 349 344 339 334 326 318 316 321 298 187 186 183 184
239 238 238 238 238 238 238 239 239 239 239 242 248 254 256 253 249 249 251 253 255 258 264 269 275 284 292 299 304 308 311 314 318 322 327 332 335 339 343 344 345 346 345 346 346 347 349 351 352 351 349 348 347 346 345 344 343 345 349 352 352 349 347 345 345 346 348 347 345 345 346 347 345 340 332 322 310 296 286 277 259 239 227 216 206
240 239 238 237 237 237 237 237 237 238 241 246 250 251 248 246 246 249 251 252 255 258 262 265 271 279 288 294 298 301 304 307 312 318 324 331 336 342 345 348 350 350 349 348 348 347 347 348 349 350 350 348 347 346 345 344 343 343 346 349 350 349 348 347 347 347 346 344 342 341 339 339 339 335 327 319 308 293 278 267 259 251 242 233 223
240 239 238 238 237 237 236 236 237 239 243 247 247 244 243 244 247 249 250 252 254 256 258 261 265 272 280 286 290 293 296 301 307 313 321 329 336 341 345 348 350 351 350 350 350 348 347 346 347 348 349 348 347 345 344 344 344 343 343 345 346 347 349 349 349 348 347 343 339 336 331 327 325 323 319 313 304 294 280 266 260 256 249 241 232
241 240 239 239 238 237 236 235 237 241 243 243 241 240 242 245 247 247 247 249 250 252 254 256 259 265 274 280 282 285 289 295 302 310 318 325 331 337 341 344 347 348 347 347 348 348 348 347 346 346 347 346 346 344 343 343 343 342 342 343 342 342 344 347 348 348 347 344 340 336 330 323 316 310 305 301 295 289 281 270 260 254 250 243 236
241 241 239 238 236 235 234 235 237 239 239 238 238 240 243 244 244 243 243 245 247 249 250 250 254 262 269 272 274 278 283 288 295 304 311 317 325 332 336 340 343 344 345 345 344 344 345 345 345 345 344 344 343 342 341 341 342 341 340 341 339 337 339 341 343 344 344 344 342 339 335 329 321 312 304 298 292 287 283 275 264 253 246 242 239
242 240 239 238 237 236 237 237 237 237 237 237 239 241 241 241 240 240 241 242 244 245 245 246 250 257 263 266 268 271 274 280 287 295 302 310 319 326 330 335 338 340 343 344 343 343 343 342 341 341 341 341 341 340 339 338 339 339 339 339 337 336 337 337 336 337 339 340 341 340 338 335 329 322 315 308 300 292 285 275 260 249 243 242 241
243 241 240 239 239 238 238 237 236 236 237 238 239 239 239 239 239 238 239 240 240 241 242 243 246 252 257 259 262 263 265 270 278 286 294 304 313 319 325 330 334 337 340 342 341 341 341 340 338 338 337 337 337 338 337 336 336 335 336 336 335 335 335 334 333 333 333 333 334 335 336 336 334 332 331 331 326 315 298 272 249 244 248 251 251
245 244 243 242 241 240 238 236 235 236 236 236 237 238 238 238 238 237 237 238 239 239 239 240 244 249 252 252 254 256 258 262 269 278 288 298 305 312 319 326 331 335 337 338 339 339 339 338 338 337 336 334 333 333 333 334 333 332 332 332 331 332 332 332 331 330 329 329 330 330 331 332 332 330 330 333 336 333 310 259 247 254 261 263 260
245 245 244 243 241 239 238 236 235 235 235 235 236 237 237 237 237 237 236 237 237 237 237 238 241 245 248 249 249 250 253 256 264 273 281 289 297 305 314 322 327 331 333 334 335 335 336 336 337 336 335 334 332 330 328 328 328 329 328 327 326 326 327 328 328 328 327 326 327 326 326 326 325 323 320 317 312 302 287 273 268 267 267 264 260